Location: Praha
(50.0830°N, 14.4670°E)
Time: 12:38:38
(UTC+02:00)

ISS - Pass Details

Date: 17 September 2021
Orbit: 419 x 423 km, 51.6° (Epoch: 21 September)

Event Time Altitude Azimuth Distance (km) Brightness Sun altitude
Rises 20:02:04 0° 202° (SSW) 2,352 0.2 -8.9°
Reaches altitude 10° 20:04:40 10° 181° (S) 1,494 -1.1 -9.3°
Maximum altitude 20:06:53 17° 140° (SE) 1,160 -2.0 -9.7°
Enters shadow 20:08:02 14° 115° (ESE) 1,262 -2.0 -9.8°
